| time (UTC) | temp F | wind direction | speed MPH | gust MPH | rain 1hr in | rain 24hr in | rain mn in | humidity % | barometer mb |
| 20260904122306 | 82 | 139 | 0.0 | 2.0 | 0.00 | 0.01 | 0.01 | 90 | 1012.2 |
| 20260904121758 | 82 | 150 | 0.0 | 1.0 | 0.00 | 0.01 | 0.01 | 91 | 1012.4 |
| 20260904121254 | 81 | 152 | 0.0 | 2.0 | 0.00 | 0.01 | 0.01 | 91 | 1012.2 |
| 20260904120750 | 81 | 151 | 0.0 | 0.0 | 0.00 | 0.01 | 0.01 | 91 | 1012.1 |
| 20260904120245 | 81 | 158 | 0.0 | 2.0 | 0.00 | 0.01 | 0.01 | 91 | 1011.9 |
| 20260904115741 | 81 | 143 | 0.0 | 2.0 | 0.00 | 0.01 | 0.01 | 91 | 1011.9 |
| 20260904115236 | 81 | 147 | 0.0 | 0.0 | 0.00 | 0.01 | 0.01 | 91 | 1012.0 |
| 20260904114730 | 81 | 137 | 1.0 | 2.0 | 0.00 | 0.01 | 0.01 | 91 | 1012.2 |
| 20260904114230 | 81 | 150 | 0.0 | 1.0 | 0.00 | 0.01 | 0.01 | 91 | 1011.9 |
| 20260904113725 | 81 | 164 | 0.0 | 0.0 | 0.00 | 0.01 | 0.01 | 91 | 1011.9 |
| 20260904113224 | 81 | 160 | 0.0 | 0.0 | 0.00 | 0.01 | 0.01 | 91 | 1012.2 |
| 20260904112719 | 81 | 159 | 0.0 | 0.0 | 0.00 | 0.01 | 0.01 | 91 | 1012.1 |
| 20260904112215 | 81 | 103 | 0.0 | 3.0 | 0.00 | 0.01 | 0.01 | 91 | 1012.0 |
| 20260904111711 | 81 | 133 | 0.0 | 0.0 | 0.00 | 0.01 | 0.01 | 91 | 1012.2 |
| 20260904111206 | 81 | 162 | 0.0 | 0.0 | 0.00 | 0.01 | 0.01 | 91 | 1012.0 |
| 20260904110702 | 81 | 129 | 2.0 | 2.0 | 0.00 | 0.01 | 0.01 | 91 | 1012.0 |
| 20260904110200 | 81 | 143 | 1.0 | 1.0 | 0.00 | 0.01 | 0.01 | 91 | 1012.1 |
| 20260904105655 | 81 | 145 | 0.0 | 0.0 | 0.00 | 0.01 | 0.01 | 91 | 1012.1 |
| 20260904105151 | 81 | 141 | 0.0 | 2.0 | 0.00 | 0.01 | 0.01 | 91 | 1012.0 |
| 20260904104646 | 81 | 140 | 0.0 | 0.0 | 0.00 | 0.01 | 0.01 | 91 | 1011.9 |
| 20260904104141 | 81 | 139 | 0.0 | 0.0 | 0.00 | 0.01 | 0.01 | 91 | 1011.8 |
| 20260904103638 | 81 | 152 | 0.0 | 0.0 | 0.00 | 0.01 | 0.01 | 91 | 1011.8 |
| 20260904103133 | 81 | 153 | 0.0 | 0.0 | 0.00 | 0.01 | 0.01 | 91 | 1011.9 |
| 20260904102629 | 81 | 171 | 0.0 | 0.0 | 0.00 | 0.01 | 0.01 | 91 | 1011.6 |
| 20260904102124 | 81 | 158 | 0.0 | 0.0 | 0.00 | 0.01 | 0.01 | 90 | 1011.6 |
| 20260904101621 | 81 | 158 | 0.0 | 0.0 | 0.00 | 0.01 | 0.01 | 90 | 1011.7 |
| 20260904101116 | 81 | 157 | 0.0 | 0.0 | 0.00 | 0.01 | 0.01 | 90 | 1011.5 |
| 20260904100612 | 81 | 159 | 0.0 | 0.0 | 0.00 | 0.01 | 0.01 | 89 | 1011.7 |
| 20260904100106 | 82 | 172 | 0.0 | 0.0 | 0.00 | 0.01 | 0.01 | 89 | 1011.4 |
| 20260904095601 | 81 | 169 | 0.0 | 0.0 | 0.00 | 0.01 | 0.01 | 88 | 1011.5 |
| 20260904095056 | 82 | 162 | 0.0 | 0.0 | 0.00 | 0.01 | 0.01 | 87 | 1011.4 |
| 20260904094550 | 82 | 155 | 0.0 | 0.0 | 0.07 | 0.01 | 0.01 | 87 | 1011.5 |
| 20260904094046 | 82 | 164 | 0.0 | 0.0 | 0.07 | 0.01 | 0.01 | 87 | 1011.4 |
| 20260904093543 | 82 | 191 | 1.0 | 2.0 | 0.00 | 0.00 | 0.00 | 86 | 1011.2 |
| 20260904093042 | 82 | 183 | 2.0 | 2.0 | 0.00 | 0.00 | 0.00 | 86 | 1011.3 |
| 20260904092538 | 82 | 150 | 1.0 | 2.0 | 0.00 | 0.00 | 0.00 | 86 | 1011.4 |
| 20260904092035 | 82 | 151 | 2.0 | 3.0 | 0.00 | 0.00 | 0.00 | 85 | 1011.4 |
| 20260904091531 | 82 | 159 | 1.0 | 2.0 | 0.00 | 0.00 | 0.00 | 85 | 1011.4 |
| 20260904091030 | 82 | 194 | 2.0 | 3.0 | 0.00 | 0.00 | 0.00 | 85 | 1011.4 |
| 20260904090526 | 83 | 182 | 2.0 | 2.0 | 0.00 | 0.00 | 0.00 | 85 | 1011.5 |
| 20260904090021 | 83 | 157 | 4.0 | 4.0 | 0.00 | 0.00 | 0.00 | 85 | 1011.4 |
| 20260904085516 | 82 | 165 | 2.0 | 3.0 | 0.00 | 0.00 | 0.00 | 85 | 1011.4 |
| 20260904085016 | 82 | 192 | 1.0 | 3.0 | 0.00 | 0.00 | 0.00 | 85 | 1011.4 |
| 20260904084512 | 82 | 155 | 3.0 | 3.0 | 0.00 | 0.00 | 0.00 | 85 | 1011.4 |
| 20260904084008 | 83 | 139 | 1.0 | 4.0 | 0.00 | 0.00 | 0.00 | 85 | 1011.4 |
| 20260904083504 | 83 | 191 | 3.0 | 4.0 | 0.00 | 0.00 | 0.00 | 85 | 1011.5 |
| 20260904082959 | 83 | 152 | 1.0 | 1.0 | 0.00 | 0.00 | 0.00 | 85 | 1011.6 |
| 20260904082454 | 83 | 162 | 1.0 | 2.0 | 0.00 | 0.00 | 0.00 | 85 | 1011.5 |
| 20260904081949 | 83 | 165 | 3.0 | 3.0 | 0.00 | 0.00 | 0.00 | 85 | 1011.6 |
| 20260904081445 | 83 | 151 | 3.0 | 4.0 | 0.00 | 0.00 | 0.00 | 85 | 1011.5 |
| 20260904080941 | 82 | 154 | 2.0 | 3.0 | 0.00 | 0.00 | 0.00 | 85 | 1011.5 |
| 20260904080436 | 82 | 183 | 3.0 | 3.0 | 0.00 | 0.00 | 0.00 | 85 | 1011.5 |
| 20260904075931 | 82 | 164 | 3.0 | 4.0 | 0.00 | 0.00 | 0.00 | 85 | 1011.5 |
| 20260904075427 | 82 | 176 | 1.0 | 2.0 | 0.00 | 0.00 | 0.00 | 85 | 1011.5 |
| 20260904074925 | 83 | 178 | 0.0 | 0.0 | 0.00 | 0.00 | 0.00 | 85 | 1011.7 |
| 20260904074421 | 83 | 172 | 1.0 | 2.0 | 0.00 | 0.00 | 0.00 | 85 | 1011.3 |
| 20260904073916 | 83 | 180 | 1.0 | 2.0 | 0.00 | 0.00 | 0.00 | 85 | 1011.5 |
| 20260904073412 | 83 | 169 | 3.0 | 3.0 | 0.00 | 0.00 | 0.00 | 85 | 1011.4 |
| 20260904072907 | 83 | 171 | 1.0 | 2.0 | 0.00 | 0.00 | 0.00 | 85 | 1011.7 |
| 20260904072402 | 83 | 150 | 1.0 | 2.0 | 0.00 | 0.00 | 0.00 | 85 | 1011.7 |
| 20260904071857 | 83 | 153 | 3.0 | 3.0 | 0.00 | 0.00 | 0.00 | 85 | 1011.7 |
| 20260904071353 | 83 | 187 | 1.0 | 3.0 | 0.00 | 0.00 | 0.00 | 85 | 1011.8 |
| 20260904070847 | 83 | 203 | 1.0 | 3.0 | 0.00 | 0.00 | 0.00 | 84 | 1011.9 |
| 20260904070346 | 83 | 165 | 3.0 | 4.0 | 0.00 | 0.00 | 0.00 | 84 | 1011.8 |
| 20260904065841 | 83 | 146 | 1.0 | 2.0 | 0.00 | 0.00 | 0.00 | 84 | 1011.7 |
| 20260904065338 | 83 | 174 | 2.0 | 4.0 | 0.00 | 0.00 | 0.00 | 84 | 1011.8 |
| 20260904064832 | 83 | 172 | 3.0 | 4.0 | 0.00 | 0.00 | 0.00 | 84 | 1011.7 |
| 20260904064328 | 83 | 152 | 2.0 | 3.0 | 0.00 | 0.00 | 0.00 | 84 | 1011.8 |
| 20260904063819 | 83 | 195 | 4.0 | 4.0 | 0.00 | 0.00 | 0.00 | 84 | 1011.9 |
| 20260904063314 | 83 | 195 | 2.0 | 3.0 | 0.00 | 0.00 | 0.00 | 84 | 1011.9 |
| 20260904062809 | 83 | 155 | 3.0 | 6.0 | 0.00 | 0.00 | 0.00 | 84 | 1011.7 |
| 20260904062306 | 83 | 146 | 4.0 | 6.0 | 0.00 | 0.00 | 0.00 | 84 | 1011.8 |
| 20260904061801 | 83 | 200 | 3.0 | 3.0 | 0.00 | 0.00 | 0.00 | 84 | 1011.8 |
| 20260904061257 | 83 | 151 | 3.0 | 7.0 | 0.00 | 0.00 | 0.00 | 85 | 1011.8 |
| 20260904060754 | 83 | 138 | 4.0 | 6.0 | 0.00 | 0.00 | 0.00 | 85 | 1011.8 |
| 20260904060249 | 83 | 187 | 2.0 | 6.0 | 0.00 | 0.00 | 0.00 | 85 | 1012.1 |
| 20260904055744 | 83 | 150 | 3.0 | 6.0 | 0.00 | 0.00 | 0.00 | 85 | 1011.9 |
| 20260904055244 | 83 | 148 | 2.0 | 4.0 | 0.00 | 0.00 | 0.00 | 85 | 1011.9 |
| 20260904054740 | 83 | 163 | 2.0 | 3.0 | 0.00 | 0.00 | 0.00 | 85 | 1012.0 |
| 20260904054236 | 83 | 163 | 5.0 | 6.0 | 0.00 | 0.00 | 0.00 | 85 | 1011.8 |
| 20260904053731 | 83 | 147 | 4.0 | 6.0 | 0.00 | 0.00 | 0.00 | 85 | 1011.9 |
| 20260904053230 | 83 | 186 | 3.0 | 4.0 | 0.00 | 0.00 | 0.00 | 85 | 1011.9 |
| 20260904052727 | 83 | 172 | 1.0 | 3.0 | 0.00 | 0.00 | 0.00 | 85 | 1011.9 |
| 20260904052223 | 83 | 148 | 4.0 | 4.0 | 0.00 | 0.00 | 0.00 | 85 | 1011.9 |
| 20260904051719 | 83 | 144 | 3.0 | 6.0 | 0.00 | 0.00 | 0.00 | 85 | 1011.9 |
| 20260904051214 | 83 | 153 | 5.0 | 6.0 | 0.00 | 0.00 | 0.00 | 86 | 1011.7 |
| 20260904050714 | 83 | 177 | 4.0 | 7.0 | 0.00 | 0.00 | 0.00 | 85 | 1011.9 |
| 20260904050211 | 83 | 136 | 3.0 | 6.0 | 0.00 | 0.00 | 0.00 | 85 | 1011.8 |
| 20260904045710 | 83 | 151 | 3.0 | 4.0 | 0.00 | 0.08 | 0.08 | 85 | 1011.9 |
| 20260904045205 | 83 | 120 | 2.0 | 4.0 | 0.00 | 0.08 | 0.08 | 85 | 1011.8 |
| 20260904044700 | 83 | 141 | 2.0 | 8.0 | 0.00 | 0.08 | 0.08 | 85 | 1011.7 |
| 20260904044157 | 83 | 175 | 4.0 | 4.0 | 0.00 | 0.08 | 0.08 | 85 | 1011.8 |
| 20260904043653 | 83 | 144 | 4.0 | 6.0 | 0.00 | 0.08 | 0.08 | 85 | 1011.7 |
| 20260904043148 | 83 | 122 | 2.0 | 3.0 | 0.00 | 0.08 | 0.08 | 85 | 1011.8 |
| 20260904042644 | 84 | 154 | 2.0 | 4.0 | 0.00 | 0.08 | 0.08 | 84 | 1011.9 |
| 20260904042140 | 83 | 155 | 2.0 | 3.0 | 0.00 | 0.08 | 0.08 | 84 | 1011.9 |
| 20260904041635 | 83 | 170 | 2.0 | 4.0 | 0.00 | 0.08 | 0.08 | 84 | 1011.8 |
| 20260904041131 | 83 | 181 | 4.0 | 6.0 | 0.00 | 0.08 | 0.08 | 84 | 1012.0 |
| 20260904040627 | 83 | 150 | 4.0 | 6.0 | 0.00 | 0.08 | 0.08 | 84 | 1011.9 |
| 20260904040123 | 83 | 152 | 2.0 | 7.0 | 0.00 | 0.08 | 0.08 | 84 | 1012.0 |
| 20260904035619 | 83 | 127 | 2.0 | 4.0 | 0.00 | 0.08 | 0.08 | 84 | 1011.9 |
| 20260904035118 | 83 | 152 | 2.0 | 6.0 | 0.00 | 0.08 | 0.08 | 83 | 1012.0 |
| 20260904034613 | 83 | 126 | 4.0 | 6.0 | 0.00 | 0.08 | 0.08 | 83 | 1011.9 |
| 20260904034108 | 84 | 132 | 2.0 | 3.0 | 0.00 | 0.08 | 0.08 | 83 | 1012.0 |
| 20260904033604 | 84 | 126 | 3.0 | 3.0 | 0.00 | 0.08 | 0.08 | 83 | 1011.9 |
| 20260904033102 | 84 | 178 | 2.0 | 4.0 | 0.00 | 0.08 | 0.08 | 83 | 1011.8 |
| 20260904032602 | 84 | 151 | 4.0 | 4.0 | 0.00 | 0.08 | 0.08 | 83 | 1011.9 |
| 20260904032100 | 84 | 118 | 4.0 | 4.0 | 0.00 | 0.08 | 0.08 | 83 | 1011.8 |
| 20260904031600 | 84 | 154 | 2.0 | 3.0 | 0.00 | 0.08 | 0.08 | 83 | 1011.8 |
| 20260904031056 | 84 | 146 | 1.0 | 6.0 | 0.00 | 0.08 | 0.08 | 83 | 1011.9 |
| 20260904030552 | 84 | 121 | 3.0 | 6.0 | 0.00 | 0.08 | 0.08 | 83 | 1011.9 |
| 20260904030047 | 84 | 138 | 2.0 | 7.0 | 0.00 | 0.08 | 0.08 | 83 | 1011.8 |
| 20260904025543 | 84 | 142 | 3.0 | 6.0 | 0.00 | 0.08 | 0.08 | 83 | 1011.8 |
| 20260904025037 | 84 | 174 | 2.0 | 3.0 | 0.00 | 0.08 | 0.08 | 83 | 1011.8 |
| 20260904024533 | 84 | 126 | 6.0 | 8.0 | 0.00 | 0.08 | 0.08 | 82 | 1011.8 |
| 20260904024028 | 84 | 155 | 3.0 | 4.0 | 0.00 | 0.08 | 0.08 | 82 | 1011.8 |
| 20260904023525 | 84 | 142 | 2.0 | 6.0 | 0.00 | 0.08 | 0.08 | 82 | 1011.9 |
| 20260904023021 | 84 | 148 | 5.0 | 7.0 | 0.00 | 0.08 | 0.08 | 83 | 1011.9 |
| 20260904022520 | 84 | 138 | 3.0 | 6.0 | 0.00 | 0.08 | 0.08 | 83 | 1011.7 |
| 20260904022018 | 84 | 174 | 1.0 | 7.0 | 0.00 | 0.08 | 0.08 | 83 | 1011.5 |
| 20260904021513 | 84 | 142 | 6.0 | 8.0 | 0.00 | 0.08 | 0.08 | 82 | 1011.3 |
| 20260904021008 | 84 | 155 | 5.0 | 7.0 | 0.00 | 0.08 | 0.08 | 82 | 1011.4 |
| 20260904020503 | 84 | 134 | 1.0 | 3.0 | 0.00 | 0.08 | 0.08 | 82 | 1011.3 |
| 20260904020001 | 84 | 152 | 2.0 | 3.0 | 0.00 | 0.08 | 0.08 | 82 | 1011.3 |
| 20260904015457 | 84 | 141 | 3.0 | 3.0 | 0.00 | 0.08 | 0.08 | 82 | 1011.3 |
| 20260904014955 | 84 | 161 | 2.0 | 3.0 | 0.00 | 0.08 | 0.08 | 82 | 1011.3 |
| 20260904014450 | 84 | 161 | 2.0 | 4.0 | 0.00 | 0.08 | 0.08 | 81 | 1011.2 |
| 20260904013946 | 84 | 155 | 2.0 | 4.0 | 0.00 | 0.08 | 0.08 | 81 | 1011.1 |
| 20260904013442 | 84 | 161 | 1.0 | 7.0 | 0.00 | 0.08 | 0.08 | 81 | 1011.1 |
| 20260904012939 | 84 | 143 | 3.0 | 4.0 | 0.00 | 0.08 | 0.08 | 81 | 1011.1 |
| 20260904012438 | 84 | 137 | 3.0 | 6.0 | 0.00 | 0.08 | 0.08 | 81 | 1011.2 |
| 20260904011932 | 85 | 138 | 4.0 | 8.0 | 0.00 | 0.08 | 0.08 | 81 | 1010.9 |
| 20260904011421 | 85 | 129 | 2.0 | 4.0 | 0.00 | 0.08 | 0.08 | 80 | 1011.0 |
| 20260904010917 | 85 | 119 | 2.0 | 3.0 | 0.00 | 0.08 | 0.08 | 80 | 1011.0 |
| 20260904010413 | 85 | 132 | 3.0 | 6.0 | 0.00 | 0.08 | 0.08 | 80 | 1011.1 |
| 20260904005908 | 85 | 143 | 2.0 | 3.0 | 0.00 | 0.08 | 0.08 | 80 | 1010.8 |
| 20260904005403 | 85 | 138 | 2.0 | 3.0 | 0.00 | 0.08 | 0.08 | 80 | 1010.9 |
| 20260904004858 | 85 | 163 | 0.0 | 2.0 | 0.00 | 0.08 | 0.08 | 80 | 1011.0 |
| 20260904004355 | 85 | 122 | 2.0 | 4.0 | 0.00 | 0.08 | 0.08 | 79 | 1010.8 |
| 20260904003855 | 85 | 158 | 1.0 | 2.0 | 0.00 | 0.08 | 0.08 | 79 | 1010.9 |
| 20260904003351 | 85 | 135 | 2.0 | 3.0 | 0.00 | 0.08 | 0.08 | 79 | 1011.0 |
| 20260904002845 | 85 | 164 | 3.0 | 4.0 | 0.00 | 0.08 | 0.08 | 78 | 1010.9 |
| 20260904002342 | 85 | 159 | 1.0 | 4.0 | 0.00 | 0.08 | 0.08 | 78 | 1010.9 |
| 20260904001841 | 85 | 128 | 2.0 | 6.0 | 0.00 | 0.08 | 0.08 | 78 | 1011.0 |
| 20260904001337 | 85 | 131 | 2.0 | 2.0 | 0.00 | 0.08 | 0.08 | 78 | 1010.9 |
| 20260904000832 | 85 | 90 | 1.0 | 3.0 | 0.00 | 0.08 | 0.08 | 78 | 1011.2 |
| 20260904000333 | 85 | 127 | 2.0 | 4.0 | 0.00 | 0.08 | 0.08 | 77 | 1011.1 |
| 20260903235831 | 85 | 48 | 2.0 | 3.0 | 0.00 | 0.08 | 0.08 | 77 | 1011.3 |
| 20260903235327 | 85 | 105 | 2.0 | 4.0 | 0.00 | 0.08 | 0.08 | 77 | 1011.2 |
| 20260903234826 | 85 | 120 | 2.0 | 4.0 | 0.00 | 0.08 | 0.08 | 77 | 1011.1 |
| 20260903234323 | 85 | 140 | 1.0 | 7.0 | 0.00 | 0.08 | 0.08 | 76 | 1011.0 |
| 20260903233819 | 85 | 126 | 2.0 | 3.0 | 0.00 | 0.08 | 0.08 | 76 | 1011.2 |
| 20260903233314 | 85 | 150 | 1.0 | 3.0 | 0.00 | 0.08 | 0.08 | 76 | 1011.2 |
| 20260903232813 | 85 | 166 | 0.0 | 1.0 | 0.00 | 0.08 | 0.08 | 76 | 1011.1 |
| 20260903232309 | 85 | 162 | 1.0 | 2.0 | 0.00 | 0.08 | 0.08 | 76 | 1011.1 |
| 20260903231808 | 85 | 126 | 0.0 | 1.0 | 0.00 | 0.08 | 0.08 | 75 | 1011.2 |
| 20260903231304 | 85 | 157 | 0.0 | 3.0 | 0.00 | 0.08 | 0.08 | 76 | 1011.2 |
| 20260903230800 | 85 | 161 | 0.0 | 2.0 | 0.00 | 0.08 | 0.08 | 75 | 1011.2 |
| 20260903230300 | 84 | 156 | 1.0 | 3.0 | 0.00 | 0.08 | 0.08 | 75 | 1011.1 |
| 20260903225755 | 84 | 164 | 0.0 | 2.0 | 0.00 | 0.08 | 0.08 | 75 | 1011.0 |
| 20260903225252 | 84 | 173 | 1.0 | 3.0 | 0.00 | 0.08 | 0.08 | 74 | 1011.4 |
| 20260903224748 | 84 | 159 | 0.0 | 2.0 | 0.00 | 0.08 | 0.08 | 74 | 1011.3 |
| 20260903224244 | 84 | 78 | 2.0 | 3.0 | 0.00 | 0.08 | 0.08 | 74 | 1011.3 |
| 20260903223739 | 84 | 148 | 0.0 | 1.0 | 0.00 | 0.08 | 0.08 | 74 | 1011.4 |
| 20260903223237 | 84 | 165 | 0.0 | 2.0 | 0.00 | 0.08 | 0.08 | 75 | 1011.1 |
| 20260903222733 | 83 | 153 | 2.0 | 2.0 | 0.00 | 0.08 | 0.08 | 75 | 1011.0 |
| 20260903222232 | 83 | 175 | 0.0 | 2.0 | 0.00 | 0.08 | 0.08 | 76 | 1011.1 |
| 20260903221727 | 83 | 146 | 2.0 | 4.0 | 0.00 | 0.08 | 0.08 | 76 | 1011.4 |
| 20260903221225 | 83 | 223 | 0.0 | 4.0 | 0.00 | 0.08 | 0.08 | 77 | 1011.5 |
| 20260903220724 | 83 | 99 | 4.0 | 4.0 | 0.00 | 0.08 | 0.08 | 78 | 1011.3 |
| 20260903220219 | 83 | 148 | 2.0 | 3.0 | 0.00 | 0.08 | 0.08 | 79 | 1011.3 |
| 20260903215718 | 83 | 99 | 2.0 | 3.0 | 0.00 | 0.08 | 0.08 | 80 | 1011.3 |
| 20260903215213 | 82 | 121 | 2.0 | 3.0 | 0.00 | 0.08 | 0.08 | 81 | 1011.4 |
| 20260903214711 | 82 | 86 | 2.0 | 4.0 | 0.00 | 0.08 | 0.08 | 84 | 1011.9 |
| 20260903214208 | 81 | 343 | 2.0 | 3.0 | 0.00 | 0.08 | 0.08 | 84 | 1011.8 |
| 20260903213702 | 81 | 117 | 2.0 | 2.0 | 0.00 | 0.08 | 0.08 | 84 | 1012.3 |
| 20260903213158 | 81 | 190 | 1.0 | 4.0 | 0.00 | 0.08 | 0.08 | 84 | 1012.4 |
| 20260903212654 | 81 | 283 | 3.0 | 3.0 | 0.00 | 0.08 | 0.08 | 84 | 1012.5 |
| 20260903212150 | 81 | 288 | 2.0 | 3.0 | 0.00 | 0.08 | 0.08 | 84 | 1012.3 |
| 20260903211643 | 81 | 53 | 3.0 | 6.0 | 0.00 | 0.08 | 0.08 | 83 | 1012.5 |
| 20260903211140 | 81 | 55 | 2.0 | 3.0 | 0.00 | 0.08 | 0.08 | 83 | 1012.6 |
| 20260903210635 | 81 | 195 | 1.0 | 2.0 | 0.00 | 0.08 | 0.08 | 83 | 1012.7 |
| 20260903210131 | 81 | 131 | 1.0 | 3.0 | 0.00 | 0.08 | 0.08 | 82 | 1012.6 |
| 20260903205631 | 81 | 81 | 2.0 | 8.0 | 0.00 | 0.08 | 0.08 | 82 | 1012.4 |
| 20260903205130 | 82 | 8 | 5.0 | 7.0 | 0.00 | 0.08 | 0.08 | 83 | 1012.5 |
| 20260903204626 | 81 | 3 | 4.0 | 7.0 | 0.00 | 0.08 | 0.08 | 83 | 1012.4 |
| 20260903204122 | 81 | 44 | 2.0 | 6.0 | 0.00 | 0.08 | 0.08 | 84 | 1012.6 |
| 20260903203612 | 81 | 21 | 4.0 | 6.0 | 0.00 | 0.08 | 0.08 | 85 | 1012.6 |
| 20260903203111 | 81 | 10 | 6.0 | 7.0 | 0.00 | 0.08 | 0.08 | 85 | 1012.4 |
| 20260903202607 | 81 | 347 | 4.0 | 6.0 | 0.00 | 0.08 | 0.08 | 85 | 1012.1 |
| 20260903202102 | 81 | 124 | 4.0 | 7.0 | 0.00 | 0.08 | 0.08 | 86 | 1012.3 |
| 20260903201556 | 80 | 352 | 3.0 | 7.0 | 0.00 | 0.08 | 0.08 | 87 | 1012.2 |
| 20260903201056 | 80 | 293 | 6.0 | 10.0 | 0.00 | 0.08 | 0.08 | 87 | 1012.2 |
| 20260903200551 | 80 | 24 | 4.0 | 7.0 | 0.00 | 0.08 | 0.08 | 87 | 1012.5 |
| 20260903200046 | 80 | 341 | 6.0 | 6.0 | 0.00 | 0.08 | 0.08 | 87 | 1012.1 |
| 20260903195542 | 80 | 202 | 2.0 | 4.0 | 0.00 | 0.08 | 0.08 | 87 | 1012.2 |
| 20260903195037 | 80 | 342 | 5.0 | 6.0 | 0.00 | 0.08 | 0.08 | 87 | 1012.3 |
| 20260903194533 | 80 | 59 | 3.0 | 6.0 | 0.00 | 0.08 | 0.08 | 87 | 1012.4 |
| 20260903194028 | 80 | 158 | 1.0 | 4.0 | 0.00 | 0.08 | 0.08 | 87 | 1012.6 |
| 20260903193524 | 80 | 359 | 5.0 | 6.0 | 0.00 | 0.08 | 0.08 | 86 | 1012.5 |
| 20260903193019 | 80 | 282 | 3.0 | 4.0 | 0.00 | 0.08 | 0.08 | 86 | 1012.5 |
| 20260903192516 | 80 | 353 | 6.0 | 9.0 | 0.00 | 0.08 | 0.08 | 84 | 1012.7 |
| 20260903192016 | 80 | 338 | 5.0 | 7.0 | 0.00 | 0.08 | 0.08 | 84 | 1012.6 |
| 20260903191513 | 80 | 336 | 4.0 | 6.0 | 0.00 | 0.08 | 0.08 | 82 | 1012.3 |
| 20260903191013 | 80 | 123 | 2.0 | 2.0 | 0.00 | 0.08 | 0.08 | 81 | 1012.5 |
| 20260903190507 | 80 | 322 | 4.0 | 7.0 | 0.00 | 0.08 | 0.08 | 81 | 1012.2 |
| 20260903190007 | 80 | 358 | 8.0 | 13.0 | 0.00 | 0.08 | 0.08 | 80 | 1012.4 |
| 20260903185503 | 80 | 15 | 8.0 | 11.0 | 0.00 | 0.08 | 0.08 | 81 | 1012.5 |
| 20260903185002 | 80 | 337 | 6.0 | 8.0 | 0.00 | 0.08 | 0.08 | 84 | 1012.4 |
| 20260903184459 | 80 | 69 | 3.0 | 3.0 | 0.00 | 0.08 | 0.08 | 84 | 1012.6 |
| 20260903183953 | 80 | 89 | 3.0 | 6.0 | 0.00 | 0.08 | 0.08 | 83 | 1012.5 |
| 20260903183448 | 79 | 324 | 4.0 | 4.0 | 0.00 | 0.08 | 0.08 | 84 | 1012.6 |
| 20260903182948 | 79 | 217 | 3.0 | 4.0 | 0.05 | 0.08 | 0.08 | 84 | 1013.1 |
| 20260903182446 | 79 | 36 | 3.0 | 6.0 | 0.12 | 0.08 | 0.08 | 84 | 1012.9 |
| 20260903181942 | 78 | 171 | 2.0 | 2.0 | 0.24 | 0.07 | 0.07 | 83 | 1013.2 |
| 20260903181436 | 79 | 112 | 1.0 | 1.0 | 0.31 | 0.06 | 0.06 | 79 | 1013.1 |
| 20260903180936 | 80 | 202 | 3.0 | 3.0 | 0.12 | 0.02 | 0.02 | 76 | 1013.4 |
| 20260903180430 | 82 | 353 | 4.0 | 4.0 | 0.05 | 0.01 | 0.01 | 72 | 1012.9 |
| 20260903175930 | 82 | 166 | 1.0 | 3.0 | 0.00 | 0.00 | 0.00 | 67 | 1013.1 |
| 20260903175425 | 83 | 331 | 7.0 | 11.0 | 0.00 | 0.00 | 0.00 | 65 | 1013.1 |
| 20260903174918 | 82 | 320 | 9.0 | 18.0 | 0.00 | 0.00 | 0.00 | 68 | 1013.4 |
| 20260903174414 | 83 | 322 | 14.0 | 16.0 | 0.00 | 0.00 | 0.00 | 73 | 1013.8 |
| 20260903173914 | 84 | 315 | 6.0 | 9.0 | 0.00 | 0.00 | 0.00 | 73 | 1013.6 |
| 20260903173409 | 86 | 7 | 12.0 | 16.0 | 0.00 | 0.00 | 0.00 | 70 | 1013.7 |
| 20260903172905 | 88 | 326 | 5.0 | 6.0 | 0.00 | 0.00 | 0.00 | 69 | 1013.3 |
| 20260903172404 | 88 | 329 | 3.0 | 4.0 | 0.00 | 0.00 | 0.00 | 69 | 1012.9 |
| 20260903171900 | 87 | 330 | 6.0 | 8.0 | 0.00 | 0.00 | 0.00 | 70 | 1012.9 |
| 20260903171355 | 88 | 288 | 4.0 | 10.0 | 0.00 | 0.00 | 0.00 | 66 | 1012.9 |
| 20260903170855 | 93 | 207 | 5.0 | 9.0 | 0.00 | 0.00 | 0.00 | 63 | 1012.9 |
| 20260903170350 | 95 | 135 | 5.0 | 8.0 | 0.00 | 0.00 | 0.00 | 61 | 1013.1 |
| 20260903165849 | 94 | 124 | 3.0 | 6.0 | 0.00 | 0.00 | 0.00 | 62 | 1013.0 |
| 20260903165349 | 92 | 137 | 2.0 | 6.0 | 0.00 | 0.00 | 0.00 | 66 | 1013.1 |
| 20260903164843 | 92 | 200 | 4.0 | 6.0 | 0.00 | 0.00 | 0.00 | 67 | 1013.2 |
| 20260903164338 | 92 | 157 | 3.0 | 6.0 | 0.00 | 0.00 | 0.00 | 67 | 1013.2 |
| 20260903163837 | 92 | 120 | 3.0 | 4.0 | 0.00 | 0.00 | 0.00 | 67 | 1013.2 |
| 20260903163334 | 91 | 163 | 0.0 | 3.0 | 0.00 | 0.00 | 0.00 | 68 | 1013.2 |
| 20260903162830 | 93 | 145 | 6.0 | 7.0 | 0.00 | 0.00 | 0.00 | 66 | 1013.2 |
| 20260903162326 | 90 | 172 | 1.0 | 2.0 | 0.00 | 0.00 | 0.00 | 71 | 1013.3 |
| 20260903161822 | 92 | 157 | 4.0 | 8.0 | 0.00 | 0.00 | 0.00 | 68 | 1013.3 |
| 20260903161317 | 91 | 135 | 2.0 | 3.0 | 0.00 | 0.00 | 0.00 | 71 | 1013.4 |
| 20260903160813 | 88 | 199 | 2.0 | 3.0 | 0.00 | 0.00 | 0.00 | 75 | 1013.3 |
| 20260903160312 | 88 | 158 | 4.0 | 4.0 | 0.00 | 0.00 | 0.00 | 74 | 1013.2 |
| 20260903155810 | 88 | 159 | 2.0 | 4.0 | 0.00 | 0.00 | 0.00 | 74 | 1013.2 |
| 20260903155306 | 87 | 167 | 0.0 | 0.0 | 0.00 | 0.00 | 0.00 | 76 | 1013.3 |
| 20260903154801 | 87 | 145 | 2.0 | 2.0 | 0.00 | 0.00 | 0.00 | 76 | 1013.0 |
| 20260903154257 | 87 | 156 | 2.0 | 4.0 | 0.00 | 0.00 | 0.00 | 76 | 1013.2 |
| 20260903153753 | 87 | 178 | 1.0 | 3.0 | 0.00 | 0.00 | 0.00 | 77 | 1013.1 |
| 20260903153249 | 86 | 162 | 0.0 | 2.0 | 0.00 | 0.00 | 0.00 | 79 | 1013.1 |
| 20260903152745 | 86 | 163 | 2.0 | 3.0 | 0.00 | 0.00 | 0.00 | 79 | 1013.2 |
| 20260903152241 | 86 | 181 | 2.0 | 2.0 | 0.00 | 0.00 | 0.00 | 80 | 1013.0 |
| 20260903151740 | 85 | 198 | 1.0 | 2.0 | 0.00 | 0.00 | 0.00 | 81 | 1013.2 |
| 20260903151236 | 85 | 156 | 3.0 | 3.0 | 0.00 | 0.00 | 0.00 | 82 | 1013.2 |
| 20260903150731 | 84 | 156 | 0.0 | 1.0 | 0.00 | 0.00 | 0.00 | 83 | 1013.1 |
| 20260903150231 | 84 | 151 | 0.0 | 2.0 | 0.00 | 0.00 | 0.00 | 83 | 1013.1 |
| 20260903145731 | 84 | 160 | 2.0 | 3.0 | 0.00 | 0.00 | 0.00 | 84 | 1013.2 |
| 20260903145226 | 84 | 148 | 0.0 | 0.0 | 0.00 | 0.00 | 0.00 | 85 | 1013.2 |
| 20260903144725 | 84 | 148 | 0.0 | 0.0 | 0.00 | 0.00 | 0.00 | 85 | 1013.4 |
| 20260903144221 | 84 | 140 | 2.0 | 3.0 | 0.00 | 0.00 | 0.00 | 84 | 1013.5 |
| 20260903143716 | 84 | 106 | 2.0 | 3.0 | 0.00 | 0.00 | 0.00 | 85 | 1013.6 |
| 20260903143212 | 84 | 151 | 0.0 | 1.0 | 0.00 | 0.00 | 0.00 | 85 | 1013.5 |
| 20260903142708 | 84 | 138 | 1.0 | 2.0 | 0.00 | 0.00 | 0.00 | 85 | 1013.5 |
| 20260903142204 | 84 | 154 | 3.0 | 4.0 | 0.00 | 0.00 | 0.00 | 84 | 1013.5 |
| 20260903141659 | 84 | 155 | 2.0 | 2.0 | 0.00 | 0.00 | 0.00 | 84 | 1013.6 |
| 20260903141154 | 84 | 148 | 2.0 | 3.0 | 0.00 | 0.00 | 0.00 | 84 | 1013.5 |
| 20260903140650 | 84 | 108 | 2.0 | 3.0 | 0.00 | 0.00 | 0.00 | 84 | 1013.5 |
| 20260903140145 | 84 | 164 | 0.0 | 3.0 | 0.00 | 0.00 | 0.00 | 84 | 1013.4 |
| 20260903135641 | 84 | 151 | 2.0 | 3.0 | 0.00 | 0.00 | 0.00 | 83 | 1013.4 |
| 20260903135135 | 84 | 160 | 1.0 | 1.0 | 0.00 | 0.00 | 0.00 | 84 | 1013.6 |
| 20260903134634 | 84 | 152 | 2.0 | 2.0 | 0.00 | 0.00 | 0.00 | 84 | 1013.6 |
| 20260903134131 | 84 | 151 | 0.0 | 2.0 | 0.00 | 0.00 | 0.00 | 83 | 1013.6 |
| 20260903133628 | 84 | 161 | 1.0 | 2.0 | 0.00 | 0.00 | 0.00 | 84 | 1013.6 |
| 20260903133124 | 83 | 155 | 0.0 | 1.0 | 0.00 | 0.00 | 0.00 | 84 | 1013.6 |
| 20260903132624 | 83 | 174 | 2.0 | 3.0 | 0.00 | 0.00 | 0.00 | 84 | 1013.5 |
| 20260903132120 | 83 | 174 | 2.0 | 3.0 | 0.00 | 0.00 | 0.00 | 84 | 1013.5 |
| 20260903131619 | 83 | 188 | 1.0 | 1.0 | 0.00 | 0.00 | 0.00 | 83 | 1013.2 |
| 20260903131118 | 83 | 196 | 3.0 | 3.0 | 0.00 | 0.00 | 0.00 | 83 | 1013.3 |
| 20260903130616 | 83 | 213 | 3.0 | 4.0 | 0.00 | 0.00 | 0.00 | 83 | 1013.4 |
| 20260903130109 | 83 | 149 | 3.0 | 3.0 | 0.00 | 0.00 | 0.00 | 84 | 1013.2 |
| 20260903125607 | 83 | 163 | 3.0 | 6.0 | 0.00 | 0.00 | 0.00 | 84 | 1013.1 |
| 20260903125102 | 83 | 168 | 1.0 | 1.0 | 0.00 | 0.00 | 0.00 | 84 | 1013.1 |
| 20260903124603 | 83 | 166 | 1.0 | 4.0 | 0.00 | 0.00 | 0.00 | 84 | 1012.7 |
| 20260903124102 | 83 | 206 | 3.0 | 3.0 | 0.00 | 0.00 | 0.00 | 85 | 1012.7 |
| 20260903123601 | 83 | 206 | 3.0 | 4.0 | 0.00 | 0.00 | 0.00 | 85 | 1012.6 |
| 20260903123101 | 83 | 199 | 3.0 | 8.0 | 0.00 | 0.00 | 0.00 | 85 | 1012.7 |
| 20260903122600 | 83 | 189 | 5.0 | 7.0 | 0.00 | 0.00 | 0.00 | 85 | 1012.6 |